Change the Weather History Date:

Wednesday, February 6, 2013

  Actual Average Record
Temperature  
Mean Temperature 35 °F -  
Max Temperature 42 °F 45 °F 53 °F (1997)
Min Temperature 28 °F 32 °F 21 °F (2007)
Degree Days  
Heating Degree Days 30    
Moisture  
Dew Point 27 °F    
Average Humidity 65    
Maximum Humidity 87    
Minimum Humidity 49    
Precipitation  
Precipitation 0.00 in - - ()
Sea Level Pressure  
Sea Level Pressure 30.00 in    
Wind  
Wind Speed 9 mph ()    
Max Wind Speed 14 mph    
Max Gust Speed -    
Visibility 6.2 miles    
Events      
Averages and records for this station are not official NWS values.
T = Trace of Precipitation, MM = Missing Value Source: Averaged Metar Reports

Daily Weather History Graph

Daily Weather History Graph

Search for Another Location

Airport or City:

Trip Planner

Search our weather history database for the weather conditions in past years. The results will help you decide how hot, cold, wet, or windy it might be!

Date:

Astronomy

Feb. 06, 2013 Rise Set
Actual Time 8:01 AM GMT 5:02 PM GMT
Civil Twilight 7:21 AM GMT 5:42 PM GMT
Nautical Twilight 6:37 AM GMT 6:26 PM GMT
Astronomical Twilight 5:54 AM GMT 7:09 PM GMT
Moon 4:54 AM GMT (2/6) 12:42 PM GMT (2/6)
Length of Visible Light 10h 20m
Length of Day
9h 00m
Waning Crescent, 19% of the Moon is Illuminated
Feb 6
Waning Crescent
Feb 10
New
Feb 17
First Quarter
Feb 25
Full
Mar 4
Last Quarter

Hourly Weather History & Observations

Time (GMT) Temp. Windchill Dew Point Humidity Pressure Visibility Wind Dir Wind Speed Gust Speed Precip Events Conditions
12:20 AM 41.0 °F 34.3 °F 30.2 °F 65% 29.65 in 6.2 mi North 11.5 mph - N/A   Scattered Clouds
12:50 AM 41.0 °F 34.3 °F 30.2 °F 65% 29.68 in 6.2 mi North 11.5 mph - N/A   Scattered Clouds
1:20 AM 41.0 °F 35.2 °F 28.4 °F 61% 29.71 in 6.2 mi North 9.2 mph - N/A   Scattered Clouds
1:50 AM 41.0 °F 34.3 °F 28.4 °F 61% 29.74 in 6.2 mi North 11.5 mph - N/A   Scattered Clouds
2:20 AM 39.2 °F 31.2 °F 28.4 °F 65% 29.77 in 6.2 mi North 13.8 mph - N/A   Scattered Clouds
2:50 AM 39.2 °F 32.5 °F 28.4 °F 65% 29.77 in 6.2 mi North 10.4 mph - N/A   Scattered Clouds
3:20 AM 39.2 °F 31.2 °F 26.6 °F 61% 29.80 in 6.2 mi North 13.8 mph - N/A   Partly Cloudy
3:50 AM 37.4 °F 31.4 °F 26.6 °F 65% 29.83 in 6.2 mi NNW 8.1 mph - N/A   Partly Cloudy
4:20 AM 37.4 °F 32.8 °F 26.6 °F 65% 29.83 in - WNW 5.8 mph - N/A   Clear
4:50 AM 39.2 °F 37.0 °F 26.6 °F 61% 29.86 in 6.2 mi Variable 3.5 mph - N/A   Scattered Clouds
5:20 AM 35.6 °F 32.8 °F 26.6 °F 70% 29.89 in 6.2 mi Variable 3.5 mph - N/A   Partly Cloudy
5:50 AM 37.4 °F 29.8 °F 26.6 °F 65% 29.89 in 6.2 mi NNW 11.5 mph - N/A   Partly Cloudy
6:20 AM 37.4 °F 31.4 °F 26.6 °F 65% 29.89 in - NW 8.1 mph - N/A   Clear
6:50 AM 37.4 °F 29.8 °F 24.8 °F 60% 29.92 in 6.2 mi NNW 11.5 mph - N/A   Partly Cloudy
7:20 AM 37.4 °F 31.4 °F 24.8 °F 60% 29.92 in 6.2 mi NNW 8.1 mph - N/A   Partly Cloudy
7:50 AM 37.4 °F 30.3 °F 26.6 °F 65% 29.95 in - NNW 10.4 mph - N/A   Clear
8:20 AM 37.4 °F 30.8 °F 26.6 °F 65% 29.95 in - NNW 9.2 mph - N/A   Clear
8:50 AM 39.2 °F 32.5 °F 24.8 °F 56% 29.98 in - NNW 10.4 mph - N/A   Clear
9:20 AM 39.2 °F 33.0 °F 26.6 °F 61% 29.98 in - NW 9.2 mph - N/A   Clear
9:50 AM 39.2 °F 32.0 °F 26.6 °F 61% 30.01 in - NNW 11.5 mph - N/A   Clear
10:20 AM 39.2 °F 31.6 °F 26.6 °F 61% 30.01 in - NNW 12.7 mph - N/A   Clear
10:50 AM 41.0 °F 34.3 °F 28.4 °F 61% 30.04 in - NW 11.5 mph - N/A   Clear
11:20 AM 41.0 °F 33.5 °F 28.4 °F 61% 30.04 in - NNW 13.8 mph - N/A   Clear
11:50 AM 41.0 °F 34.7 °F 28.4 °F 61% 30.06 in 6.2 mi NNW 10.4 mph - N/A   Partly Cloudy
12:20 PM 41.0 °F 34.3 °F 26.6 °F 57% 30.06 in 6.2 mi NNW 11.5 mph - N/A   Partly Cloudy
12:50 PM 41.0 °F 33.9 °F 26.6 °F 57% 30.06 in 6.2 mi NNW 12.7 mph - N/A   Partly Cloudy
1:20 PM 41.0 °F 34.7 °F 26.6 °F 57% 30.06 in 6.2 mi NNW 10.4 mph - N/A   Partly Cloudy
1:50 PM 42.8 °F 37.0 °F 24.8 °F 49% 30.09 in 6.2 mi North 10.4 mph - N/A   Partly Cloudy
2:20 PM 41.0 °F 34.7 °F 26.6 °F 57% 30.09 in 6.2 mi NNW 10.4 mph - N/A   Partly Cloudy
2:50 PM 41.0 °F 34.7 °F 26.6 °F 57% 30.09 in 6.2 mi NNW 10.4 mph - N/A   Partly Cloudy
3:20 PM 42.8 °F 38.0 °F 26.6 °F 53% 30.09 in 6.2 mi NW 8.1 mph - N/A   Partly Cloudy
3:50 PM 41.0 °F 39.0 °F 26.6 °F 57% 30.12 in 6.2 mi Variable 3.5 mph - N/A   Partly Cloudy
4:20 PM 41.0 °F 36.4 °F 26.6 °F 57% 30.12 in 6.2 mi WNW 6.9 mph - N/A   Partly Cloudy
4:50 PM 39.2 °F 35.0 °F 26.6 °F 61% 30.12 in 6.2 mi NNW 5.8 mph - N/A   Partly Cloudy
5:20 PM 37.4 °F 32.8 °F 28.4 °F 70% 30.12 in 6.2 mi WSW 5.8 mph - N/A   Partly Cloudy
5:50 PM 39.2 °F 33.6 °F 26.6 °F 61% 30.12 in 6.2 mi West 8.1 mph - N/A   Partly Cloudy
6:20 PM 37.4 °F 31.4 °F 28.4 °F 70% 30.12 in - West 8.1 mph - N/A   Clear
6:50 PM 37.4 °F 31.4 °F 28.4 °F 70% 30.15 in 6.2 mi West 8.1 mph - N/A   Scattered Clouds
7:20 PM 35.6 °F 29.9 °F 28.4 °F 75% 30.15 in 6.2 mi WSW 6.9 mph - N/A   Scattered Clouds
7:50 PM 37.4 °F 31.4 °F 28.4 °F 70% 30.15 in 6.2 mi West 8.1 mph - N/A   Scattered Clouds
8:20 PM 35.6 °F 29.9 °F 28.4 °F 75% 30.15 in 6.2 mi West 6.9 mph - N/A   Scattered Clouds
8:50 PM 30.2 °F 22.6 °F 26.6 °F 86% 30.15 in 6.2 mi WSW 8.1 mph - N/A   Scattered Clouds
9:20 PM 33.8 °F 27.0 °F 28.4 °F 81% 30.15 in 6.2 mi West 8.1 mph - N/A   Partly Cloudy
9:50 PM 33.8 °F 27.7 °F 28.4 °F 81% 30.15 in - West 6.9 mph - N/A   Clear
10:20 PM 28.4 °F 23.3 °F 24.8 °F 86% 30.15 in - WSW 4.6 mph - N/A   Clear
10:50 PM 33.8 °F 27.0 °F 28.4 °F 81% 30.15 in - WNW 8.1 mph - N/A   Clear
11:20 PM 32.0 °F 25.6 °F 28.4 °F 87% 30.15 in - WNW 6.9 mph - N/A   Clear
11:50 PM 33.8 °F 27.0 °F 28.4 °F 81% 30.15 in - West 8.1 mph - N/A   Clear